Regional Weather Roundup
Issued by NWS Portland, ME

Current Version | Previous Version | Text Only | Print | Product List | Glossary Off
Versions: 1 2 3 4 5 6 7 8 9 10 11 12 13 14 15 16 17 18 19 20 21 22 23 24 25 26 27 28 29 30 31 32 33 34 35 36 37 38 39 40 41 42 43 44 45 46 47 48 49 50
364 ASUS41 KGYX 211605 RWRGYX WEATHER ROUNDUP FOR MAINE AND NEW HAMPSHIRE NATIONAL WEATHER SERVICE GRAY ME 1200 PM EDT TUE MAY 21 2019 MEZ002-005-006-010-012-015-018-020-021-024-026-027-029-211700- MAINE CITY SKY/WX TMP DP RH WIND PRES REMARKS PORTLAND FAIR 62 36 37 NW22G33 29.70R SANFORD FAIR 60 36 40 NW22G36 29.73R BAR HARBOR PTSUNNY 58 40 51 NW15G29 29.60 WISCASSET FAIR 60 34 37 NW12G30 29.68R ROCKLAND FAIR 60 36 40 W22G32 29.62R FRYEBURG FAIR 60 35 39 W12G28 29.73S LEWISTONAUBURN CLOUDY 57 35 43 NW17G29 29.71R AUGUSTA PTSUNNY 56 35 45 NW15G25 29.68R WATERVILLE FAIR 57 35 43 W21G30 29.64R BANGOR PTSUNNY 57 36 45 NW20G26 29.60S GREENVILLE N/A 47 35 63 NW16G32 29.59R MILLINOCKET CLOUDY 51 39 63 W16G26 29.60R HOULTON LGT RAIN 48 45 89 W13G20 29.52R FOG PRESQUE ISLE LGT RAIN 47 44 90 NW12 29.55R FRENCHVILLE LGT RAIN 47 40 76 NW22G30 29.53S CARIBOU LGT RAIN 48 43 82 NW12G18 29.53R $$ NHZ002-005-008-009-011-012-014-211700- NEW HAMPSHIRE CITY SKY/WX TMP DP RH WIND PRES REMARKS ROCHESTER FAIR 61 35 37 NW23G35 29.73R NASHUA FAIR 64 35 34 W22G32 29.78R MANCHESTER PTSUNNY 64 34 32 NW21G31 29.77R CONCORD PTSUNNY 59 34 39 NW17G35 29.77R LACONIA N/A N/A N/A N/A MISG N/A PLYMOUTH FAIR 54 37 52 NW18G31 29.78S BERLIN CLOUDY 49 37 63 W13G29 29.74S WHITEFIELD CLOUDY 48 37 65 W15G22 29.79R HAZE JAFFREY FAIR 59 34 39 NW18G30 29.82R KEENE CLOUDY 58 36 43 N18 29.83F LEBANON PTSUNNY 57 35 43 NW13G28 29.82R MT WASHINGTON SNOWSHWR 25 25 100 W68G85 N/A VSB 1/16WCI 2 $$ VTZ005-007-008-211700- VERMONT CITY SKY/WX TMP DP RH WIND PRES REMARKS ST JOHNSBURY N/A 48 38 68 MISG 29.80R MONTPELIER LGT RAIN 48 37 65 NW15G33 29.86R BURLINGTON CLOUDY 53 36 52 NW16 29.87R $$ MAZ007-012-024-CTZ003-RIZ002-NYZ038-NYZ072-211700- SOUTHERN NEW ENGLAND AND NY CITY SKY/WX TMP DP RH WIND PRES REMARKS BOSTON FAIR 67 37 33 W14G26 29.76R WORCESTER FAIR 59 37 44 W25G36 29.80S NANTUCKET FAIR 63 42 46 NW17 29.77R PROVIDENCE FAIR 64 37 36 NW20G26 29.81R HARTFORD FAIR 65 38 36 NW28G35 29.86S ALBANY PTSUNNY 60 41 49 W16G32 29.93S NEW YORK CITY FAIR 63 36 36 NW17G30 29.94S $$ ANZ081-ANZ082-ANZ150-NHZ014-MEZ023>029-211700- COASTAL MARINE OBSERVATIONS STATION/POSITION TIME TEMP WIND PRES WAVE AIR SEA DIR/SP/G HT/PER (UTC) (F) (DEG/KT/KT) (MB) (FT/S) ISLE OF SHOALS 1500 57 290/ 25/ 28 1005.2S JEFFREYS LEDGE 1538 48 N/A 4/ 5 CASHES LEDGE BUO 1550 53 47 1004.8R 3/ 4 GEORGES BANK BUO 1550 48 45 260/ 14/ 16 1006.4S 5/ 6 $$ .............KEY.............. WCI - WIND CHILL TC - TEMPERATURE IN CELSIUS VSB - VISIBILITY IN MILES HX - HEAT INDEX FAIR- INDICATES FEW OR NO CLOUDS BELOW 12,000 FT, WITH NO SIGNIFICANT WEATHER AND/OR OBSTRUCTIONS TO VISIBILITY.

USA.gov is the U.S. government's official web portal to all federal, state and local government web resources and services.